Flag for U.S.A. Weather past 2 weeks in Woodstock, New York, U.S.A.

Now
58 °F

Mostly cloudy.


Feels Like: 56 °F
Forecast: 48 / 63 °F
Wind: 8 mph from North

Location: Dutchess County Airport

Current Time: Jun 2, 2015 at 5:53:07 PM

Latest Report: Jun 2, 2015 at 4:53 PM


Visibility: 10 mi

Pressure: 30.11 "Hg

Humidity: 75%

Dew point: 50 °F

Location of WoodstockLocation

Historic Weather in Woodstock — Graph

°F

Woodstock temperature yesterday

Maximum temperature yesterday: 57 °F (at 12:53 AM)
Minimum temperature yesterday: 50 °F (at 9:53 PM)
Average temperature yesterday: 54 °F

Past Weeks' High & Low Weather Summary

 TemperatureHumidityPressure
High87 °F (May 25, 3:53 PM)94% (May 28, 12:04 AM)30.40 "Hg (May 28, 12:04 AM)
Low41 °F (May 23, 5:53 AM)18% (May 24, 4:53 PM)29.70 "Hg (May 19, 7:53 PM)
Average65 °F66%30.09 "Hg
* Reported May 18 4:53 PM — Jun 2 4:53 PM, Woodstock, Weather by CustomWeather, © 2015

Note: Actual official high and low records may vary slightly from our data, if they occured in-between our weather recording intervals... More about our weather records

Advertising

Woodstock weather history for previous 24 hours

 ConditionsComfort  
Time TempWeatherWind HumidityBarometerVisibility
4:53 PM
Tue, Jun 2
58 °FMostly cloudy.8 mph75%30.11 "Hg10 mi
3:53 PM56 °FOvercast.3 mph81%30.12 "Hg10 mi
2:53 PM56 °FMostly cloudy.5 mph81%30.14 "Hg10 mi
2:00 PM55 °FOvercast.3 mph80%30.16 "Hg10 mi
1:04 PM55 °FOvercast.5 mph77%30.17 "Hg10 mi
12:53 PM55 °FOvercast.6 mph77%30.16 "Hg10 mi
11:53 AM54 °FMostly cloudy.7 mph80%30.16 "Hg10 mi
10:53 AM53 °FCloudy.8 mph80%30.15 "Hg10 mi
9:53 AM51 °FLight rain. Overcast.7 mph86%30.16 "Hg10 mi
8:53 AM51 °FOvercast.6 mph86%30.15 "Hg10 mi
7:53 AM50 °FLow clouds.6 mph89%30.13 "Hg10 mi
6:53 AM49 °FMostly cloudy.7 mph90%30.13 "Hg10 mi
5:53 AM49 °FRain. Fog.6 mph90%30.13 "Hg4 mi
4:53 AM49 °FLight rain. Low clouds.5 mph90%30.13 "Hg7 mi
3:53 AM49 °FLight rain. Fog.5 mph90%30.13 "Hg5 mi
3:02 AM49 °FLight rain. Overcast.6 mph90%30.14 "Hg10 mi
2:53 AM49 °FLight rain. Mostly cloudy.5 mph90%30.13 "Hg9 mi
2:04 AM49 °FLight rain. Low clouds.3 mph90%30.15 "Hg9 mi
1:53 AM49 °FLight rain. Fog.3 mph90%30.15 "Hg6 mi
12:53 AM49 °FLight rain. Overcast.5 mph90%30.16 "Hg8 mi
11:53 PM
Mon, Jun 1
50 °FLight rain. Overcast.6 mph86%30.18 "Hg10 mi
10:53 PM50 °FOvercast.3 mph86%30.18 "Hg10 mi
9:53 PM50 °FHeavy rain. Fog.7 mph93%30.18 "Hg3 mi
8:53 PM52 °FRain. Fog.8 mph89%30.16 "Hg4 mi
7:53 PM53 °FOvercast.6 mph86%30.14 "Hg10 mi
7:00 PM54 °FOvercast.5 mph86%30.15 "Hg10 mi
5:53 PM55 °FLow clouds.3 mph87%30.12 "Hg10 mi
Weather by CustomWeather, © 2015

See weather overviewHow to use our weather pages